TimeMDT,TemperatureF,Dew PointF,Humidity,Sea Level PressureIn,VisibilityMPH,Wind Direction,Wind SpeedMPH,Gust SpeedMPH,PrecipitationIn,Events,Conditions,WindDirDegrees,DateUTC
2:00 AM,-25.6,-32.8,69,30.40,9.0,ESE,3.5,-,N/A,,Clear,110,2013-04-08 08:00:00
3:00 AM,-25.6,-32.8,69,30.39,9.0,SSE,2.3,-,N/A,,Partly Cloudy,150,2013-04-08 09:00:00
4:00 AM,-25.6,-34.6,63,30.37,9.0,SE,2.3,-,N/A,,Partly Cloudy,140,2013-04-08 10:00:00
5:00 AM,-27.4,-36.4,62,30.35,9.0,SE,2.3,-,N/A,,Partly Cloudy,130,2013-04-08 11:00:00
6:00 AM,-27.4,-34.6,69,30.34,9.0,East,12.7,18.4,N/A,,Partly Cloudy,100,2013-04-08 12:00:00
6:19 AM,-9999,-9999,N/A,-9999,15.0,ESE,4.6,-,N/A,,Partly Cloudy,110,2013-04-08 12:19:00
7:00 AM,-23.8,-31.0,69,30.34,15.0,Calm,Calm,-,N/A,,Partly Cloudy,0,2013-04-08 13:00:00
8:00 AM,-27.4,-36.4,62,30.32,15.0,NNE,3.5,-,N/A,,Partly Cloudy,30,2013-04-08 14:00:00
9:00 AM,-25.6,-34.6,63,30.31,15.0,NNW,2.3,-,N/A,,Scattered Clouds,330,2013-04-08 15:00:00
10:00 AM,-25.6,-34.6,63,30.30,15.0,NW,4.6,-,N/A,,Mostly Cloudy,320,2013-04-08 16:00:00
11:00 AM,-25.6,-34.6,63,30.29,15.0,South,3.5,-,N/A,,Mostly Cloudy,190,2013-04-08 17:00:00
12:00 PM,-25.6,-32.8,69,30.28,15.0,NNW,2.3,-,N/A,,Mostly Cloudy,340,2013-04-08 18:00:00
1:00 PM,-23.8,-32.8,63,30.27,15.0,Calm,Calm,-,N/A,,Mostly Cloudy,0,2013-04-08 19:00:00
2:00 PM,-27.4,-34.6,69,30.26,15.0,WNW,2.3,-,N/A,,Mostly Cloudy,300,2013-04-08 20:00:00
3:00 PM,-27.4,-36.4,62,30.25,15.0,West,4.6,-,N/A,,Mostly Cloudy,280,2013-04-08 21:00:00
4:00 PM,-29.2,-38.2,62,30.24,15.0,West,2.3,-,N/A,,Mostly Cloudy,270,2013-04-08 22:00:00
5:00 PM,-27.4,-36.4,62,30.23,15.0,NW,2.3,-,N/A,,Mostly Cloudy,310,2013-04-08 23:00:00
6:00 PM,-25.6,-34.6,63,30.21,15.0,NW,2.3,-,N/A,,Mostly Cloudy,310,2013-04-09 00:00:00
7:00 PM,-23.8,-32.8,63,30.20,15.0,Calm,Calm,-,N/A,,Mostly Cloudy,0,2013-04-09 01:00:00
8:00 PM,-25.6,-34.6,63,30.20,15.0,WNW,5.8,-,N/A,,Mostly Cloudy,290,2013-04-09 02:00:00
9:00 PM,-23.8,-32.8,63,30.19,15.0,West,8.1,-,N/A,,Mostly Cloudy,280,2013-04-09 03:00:00
10:00 PM,-23.8,-31.0,69,30.19,15.0,WNW,6.9,-,N/A,,Mostly Cloudy,290,2013-04-09 04:00:00
11:00 PM,-20.2,-27.4,69,30.19,15.0,West,6.9,-,N/A,,Mostly Cloudy,280,2013-04-09 05:00:00